Tracking 22879 objects as of 23-Apr-2021
HD Live streaming from Space Station
objects crossing your sky now

FLOCK 2K 26

Track FLOCK 2K 26 now!
10-day predictions
FLOCK 2K 26 is classified as:


NORAD ID: 42883
Int'l Code: 2017-042BL
Perigee: 418.8 km
Apogee: 428.3 km
Inclination: 96.9 °
Period: 92.9 minutes
Semi major axis: 6794 km
RCS: Unknown
Launch date: July 14, 2017
Source: United States (US)
Launch site: TYURATAM MISSILE AND SPACE COMPLEX (TTMTR)
aabbcc
Your satellite tracking list
Your tracking list is empty




NASA's NSSDC Master Catalog

Two Line Element Set (TLE):
1 42883U 17042BL  21112.59653659  .00015438  00000-0  27559-3 0  9996
2 42883  96.8573 331.3012 0006954 258.7626 101.2845 15.50105951211937
Source of the keplerian elements: AFSPC